| time (UTC) | temp C | wind direction | speed KPH | gust KPH | rain 1hr cm | rain 24hr cm | rain mn cm | humidity % | barometer mb |
| 20260503214003 | 15 | 1 | 14.5 | 19.3 | 0.00 | 0.00 | 0.00 | 29 | 1012.6 |
| 20260503213003 | 15 | 1 | 14.5 | 29.0 | 0.00 | 0.00 | 0.00 | 29 | 1012.5 |
| 20260503212503 | 15 | 1 | 12.9 | 29.0 | 0.00 | 0.00 | 0.00 | 28 | 1012.5 |
| 20260503212004 | 15 | 1 | 12.9 | 22.5 | 0.00 | 0.00 | 0.00 | 29 | 1012.5 |
| 20260503211503 | 15 | 2 | 14.5 | 25.7 | 0.00 | 0.00 | 0.00 | 29 | 1012.5 |
| 20260503211003 | 15 | 1 | 16.1 | 25.7 | 0.00 | 0.00 | 0.00 | 30 | 1012.6 |
| 20260503210503 | 15 | 1 | 17.7 | 30.6 | 0.00 | 0.00 | 0.00 | 29 | 1012.6 |
| 20260503210004 | 15 | 1 | 16.1 | 30.6 | 0.00 | 0.00 | 0.00 | 30 | 1012.6 |
| 20260503204504 | 15 | 2 | 12.9 | 20.9 | 0.00 | 0.00 | 0.00 | 32 | 1012.8 |
| 20260503204003 | 14 | 1 | 14.5 | 20.9 | 0.00 | 0.00 | 0.00 | 31 | 1012.8 |
| 20260503203504 | 14 | 2 | 14.5 | 20.9 | 0.00 | 0.00 | 0.00 | 31 | 1012.9 |
| 20260503202503 | 14 | 2 | 14.5 | 24.1 | 0.00 | 0.00 | 0.00 | 31 | 1012.8 |
| 20260503202003 | 13 | 1 | 14.5 | 25.7 | 0.00 | 0.00 | 0.00 | 32 | 1012.8 |
| 20260503201503 | 14 | 2 | 14.5 | 25.7 | 0.00 | 0.00 | 0.00 | 30 | 1012.9 |
| 20260503200503 | 13 | 2 | 12.9 | 24.1 | 0.00 | 0.00 | 0.00 | 31 | 1012.9 |
| 20260503200004 | 14 | 2 | 12.9 | 24.1 | 0.00 | 0.00 | 0.00 | 31 | 1012.9 |
| 20260503195504 | 14 | 1 | 16.1 | 24.1 | 0.00 | 0.00 | 0.00 | 31 | 1012.9 |
| 20260503195003 | 14 | 1 | 16.1 | 17.7 | 0.00 | 0.00 | 0.00 | 31 | 1013.0 |
| 20260503194004 | 15 | 1 | 12.9 | 22.5 | 0.00 | 0.00 | 0.00 | 32 | 1013.1 |
| 20260503193503 | 14 | 2 | 16.1 | 22.5 | 0.00 | 0.00 | 0.00 | 31 | 1013.0 |
| 20260503193004 | 13 | 1 | 17.7 | 19.3 | 0.00 | 0.00 | 0.00 | 31 | 1013.2 |
| 20260503192504 | 13 | 1 | 17.7 | 22.5 | 0.00 | 0.00 | 0.00 | 32 | 1013.2 |
| 20260503192003 | 14 | 2 | 16.1 | 22.5 | 0.00 | 0.00 | 0.00 | 30 | 1013.3 |
| 20260503191004 | 14 | 1 | 16.1 | 19.3 | 0.00 | 0.00 | 0.00 | 32 | 1013.2 |
| 20260503190004 | 13 | 2 | 12.9 | 22.5 | 0.00 | 0.00 | 0.00 | 32 | 1013.3 |
| 20260503185503 | 13 | 1 | 12.9 | 22.5 | 0.00 | 0.00 | 0.00 | 33 | 1013.5 |
| 20260503185004 | 13 | 2 | 12.9 | 16.1 | 0.00 | 0.00 | 0.00 | 32 | 1013.5 |
| 20260503184504 | 13 | 1 | 14.5 | 16.1 | 0.00 | 0.00 | 0.00 | 33 | 1013.5 |
| 20260503184003 | 13 | 1 | 12.9 | 16.1 | 0.00 | 0.00 | 0.00 | 33 | 1013.7 |
| 20260503183503 | 13 | 1 | 14.5 | 33.8 | 0.00 | 0.00 | 0.00 | 34 | 1013.6 |
| 20260503183004 | 13 | 1 | 14.5 | 33.8 | 0.00 | 0.00 | 0.00 | 32 | 1013.6 |
| 20260503182504 | 13 | 1 | 12.9 | 33.8 | 0.00 | 0.00 | 0.00 | 33 | 1013.6 |
| 20260503182004 | 13 | 2 | 14.5 | 27.4 | 0.00 | 0.00 | 0.00 | 32 | 1013.8 |
| 20260503181505 | 13 | 1 | 14.5 | 19.3 | 0.00 | 0.00 | 0.00 | 34 | 1013.7 |
| 20260503180503 | 12 | 1 | 20.9 | 32.2 | 0.00 | 0.00 | 0.00 | 34 | 1013.5 |
| 20260503180004 | 12 | 1 | 17.7 | 32.2 | 0.00 | 0.00 | 0.00 | 34 | 1013.6 |
| 20260503175004 | 12 | 1 | 9.7 | 16.1 | 0.00 | 0.00 | 0.00 | 35 | 1013.8 |
| 20260503174504 | 12 | 1 | 9.7 | 24.1 | 0.00 | 0.00 | 0.00 | 37 | 1013.9 |
| 20260503174004 | 12 | 2 | 12.9 | 24.1 | 0.00 | 0.00 | 0.00 | 34 | 1013.9 |
| 20260503172003 | 12 | 1 | 12.9 | 14.5 | 0.00 | 0.00 | 0.00 | 38 | 1014.0 |
| 20260503171503 | 11 | 2 | 12.9 | 24.1 | 0.00 | 0.00 | 0.00 | 38 | 1014.0 |
| 20260503171003 | 11 | 2 | 12.9 | 24.1 | 0.00 | 0.00 | 0.00 | 37 | 1013.9 |
| 20260503170503 | 12 | 2 | 12.9 | 24.1 | 0.00 | 0.00 | 0.00 | 39 | 1014.0 |
| 20260503151003 | 9 | 1 | 11.3 | 17.7 | 0.00 | 0.00 | 0.00 | 45 | 1014.7 |
| 20260503150503 | 9 | 2 | 11.3 | 16.1 | 0.00 | 0.00 | 0.00 | 48 | 1014.7 |
| 20260503131003 | 7 | 2 | 11.3 | 17.7 | 0.00 | 0.00 | 0.00 | 53 | 1014.5 |
| 20260503090504 | 6 | 1 | 4.8 | 8.0 | 0.00 | 0.00 | 0.00 | 63 | 1011.9 |
| 20260503081504 | 5 | 0 | 0.0 | 0.0 | 0.00 | 0.00 | 0.00 | 66 | 1011.7 |
| 20260503081003 | 6 | 1 | 0.0 | 1.6 | 0.00 | 0.00 | 0.00 | 65 | 1011.6 |
| 20260503080504 | 6 | 1 | 1.6 | 1.6 | 0.00 | 0.00 | 0.00 | 65 | 1011.6 |
| 20260503072004 | 6 | 1 | 1.6 | 3.2 | 0.00 | 0.00 | 0.00 | 62 | 1011.4 |
| 20260503071504 | 6 | 1 | 3.2 | 4.8 | 0.00 | 0.00 | 0.00 | 62 | 1011.5 |
| 20260503070503 | 7 | 1 | 1.6 | 8.0 | 0.00 | 0.00 | 0.00 | 61 | 1011.4 |
| 20260503055003 | 7 | 1 | 4.8 | 6.4 | 0.00 | 0.00 | 0.00 | 59 | 1011.8 |
| 20260503054503 | 7 | 2 | 4.8 | 6.4 | 0.00 | 0.00 | 0.00 | 59 | 1011.8 |
| 20260503054005 | 7 | 1 | 3.2 | 6.4 | 0.00 | 0.00 | 0.00 | 59 | 1011.8 |
| 20260503053503 | 7 | 2 | 3.2 | 6.4 | 0.00 | 0.00 | 0.00 | 59 | 1011.9 |
| 20260503053003 | 7 | 1 | 3.2 | 6.4 | 0.00 | 0.00 | 0.00 | 58 | 1012.0 |
| 20260503052503 | 8 | 2 | 3.2 | 6.4 | 0.00 | 0.00 | 0.00 | 58 | 1012.1 |
| 20260503052004 | 8 | 1 | 3.2 | 4.8 | 0.00 | 0.00 | 0.00 | 57 | 1012.2 |
| 20260503051003 | 8 | 1 | 6.4 | 8.0 | 0.00 | 0.00 | 0.00 | 56 | 1012.2 |
| 20260503050503 | 8 | 2 | 6.4 | 8.0 | 0.00 | 0.00 | 0.00 | 56 | 1012.2 |
| 20260503050004 | 8 | 2 | 4.8 | 8.0 | 0.00 | 0.00 | 0.00 | 56 | 1012.2 |
| 20260503045503 | 8 | 1 | 3.2 | 8.0 | 0.00 | 0.00 | 0.00 | 55 | 1012.3 |
| 20260503045003 | 8 | 1 | 4.8 | 8.0 | 0.00 | 0.00 | 0.00 | 55 | 1012.3 |
| 20260503044004 | 8 | 1 | 3.2 | 4.8 | 0.00 | 0.00 | 0.00 | 54 | 1012.4 |
| 20260503043503 | 8 | 1 | 4.8 | 9.7 | 0.00 | 0.00 | 0.00 | 54 | 1012.5 |
| 20260503042504 | 8 | 2 | 4.8 | 11.3 | 0.00 | 0.00 | 0.00 | 53 | 1012.5 |
| 20260503042003 | 8 | 1 | 4.8 | 11.3 | 0.00 | 0.00 | 0.00 | 53 | 1012.5 |
| 20260503041503 | 8 | 1 | 3.2 | 11.3 | 0.00 | 0.00 | 0.00 | 53 | 1012.5 |
| 20260503040504 | 9 | 1 | 4.8 | 4.8 | 0.00 | 0.00 | 0.00 | 51 | 1012.6 |
| 20260503040004 | 9 | 1 | 4.8 | 6.4 | 0.00 | 0.00 | 0.00 | 51 | 1012.6 |
| 20260503035504 | 9 | 2 | 4.8 | 6.4 | 0.00 | 0.00 | 0.00 | 51 | 1012.6 |
| 20260503035004 | 9 | 1 | 4.8 | 9.7 | 0.00 | 0.00 | 0.00 | 50 | 1012.6 |
| 20260503034503 | 9 | 2 | 4.8 | 9.7 | 0.00 | 0.00 | 0.00 | 50 | 1012.6 |
| 20260503034003 | 9 | 1 | 3.2 | 6.4 | 0.00 | 0.00 | 0.00 | 49 | 1012.5 |
| 20260503031003 | 10 | 1 | 4.8 | 11.3 | 0.00 | 0.00 | 0.00 | 48 | 1012.5 |
| 20260503030504 | 10 | 1 | 4.8 | 11.3 | 0.00 | 0.00 | 0.00 | 47 | 1012.6 |
| 20260503030004 | 10 | 1 | 4.8 | 8.0 | 0.00 | 0.00 | 0.00 | 47 | 1012.5 |
| 20260503025003 | 10 | 1 | 4.8 | 9.7 | 0.00 | 0.00 | 0.00 | 47 | 1012.5 |
| 20260503024503 | 10 | 1 | 6.4 | 9.7 | 0.00 | 0.00 | 0.00 | 46 | 1012.5 |
| 20260503023505 | 10 | 1 | 6.4 | 12.9 | 0.00 | 0.00 | 0.00 | 45 | 1012.7 |
| 20260503023004 | 10 | 1 | 6.4 | 12.9 | 0.00 | 0.00 | 0.00 | 45 | 1012.6 |
| 20260503022503 | 10 | 1 | 6.4 | 12.9 | 0.00 | 0.00 | 0.00 | 45 | 1012.6 |
| 20260503022003 | 11 | 1 | 6.4 | 9.7 | 0.00 | 0.00 | 0.00 | 44 | 1012.5 |
| 20260503021504 | 11 | 2 | 6.4 | 8.0 | 0.00 | 0.00 | 0.00 | 44 | 1012.6 |
| 20260503021003 | 11 | 1 | 6.4 | 9.7 | 0.00 | 0.00 | 0.00 | 43 | 1012.6 |
| 20260503020503 | 11 | 1 | 6.4 | 11.3 | 0.00 | 0.00 | 0.00 | 43 | 1012.6 |
| 20260503015504 | 11 | 2 | 6.4 | 11.3 | 0.00 | 0.00 | 0.00 | 43 | 1012.6 |
| 20260503015003 | 11 | 2 | 8.0 | 14.5 | 0.00 | 0.00 | 0.00 | 43 | 1012.6 |
| 20260503014504 | 11 | 2 | 8.0 | 14.5 | 0.00 | 0.00 | 0.00 | 43 | 1012.6 |
| 20260503014003 | 11 | 2 | 8.0 | 11.3 | 0.00 | 0.00 | 0.00 | 43 | 1012.5 |
| 20260503013504 | 11 | 1 | 8.0 | 9.7 | 0.00 | 0.00 | 0.00 | 43 | 1012.6 |
| 20260503013003 | 11 | 1 | 6.4 | 9.7 | 0.00 | 0.00 | 0.00 | 42 | 1012.5 |
| 20260503012503 | 11 | 1 | 6.4 | 9.7 | 0.00 | 0.00 | 0.00 | 43 | 1012.5 |
| 20260503012004 | 11 | 1 | 6.4 | 9.7 | 0.00 | 0.00 | 0.00 | 43 | 1012.4 |
| 20260503011504 | 11 | 1 | 4.8 | 8.0 | 0.00 | 0.00 | 0.00 | 43 | 1012.4 |
| 20260503011004 | 11 | 2 | 4.8 | 8.0 | 0.00 | 0.00 | 0.00 | 43 | 1012.4 |
| 20260503010503 | 11 | 1 | 4.8 | 6.4 | 0.00 | 0.00 | 0.00 | 43 | 1012.4 |
| 20260503010004 | 11 | 1 | 4.8 | 8.0 | 0.00 | 0.00 | 0.00 | 42 | 1012.4 |
| 20260503005503 | 12 | 2 | 6.4 | 11.3 | 0.00 | 0.00 | 0.00 | 41 | 1012.3 |
| 20260503004504 | 12 | 1 | 4.8 | 6.4 | 0.00 | 0.00 | 0.00 | 40 | 1012.3 |
| 20260503004004 | 12 | 2 | 6.4 | 8.0 | 0.00 | 0.00 | 0.00 | 40 | 1012.1 |
| 20260503003503 | 12 | 1 | 6.4 | 8.0 | 0.00 | 0.00 | 0.00 | 40 | 1012.1 |
| 20260503003003 | 12 | 1 | 6.4 | 11.3 | 0.00 | 0.00 | 0.00 | 40 | 1012.0 |
| 20260503002504 | 12 | 1 | 4.8 | 11.3 | 0.00 | 0.00 | 0.00 | 40 | 1012.0 |
| 20260503001003 | 12 | 1 | 4.8 | 11.3 | 0.00 | 0.00 | 0.00 | 38 | 1012.0 |
| 20260503000504 | 12 | 1 | 6.4 | 8.0 | 0.00 | 0.00 | 0.00 | 38 | 1011.9 |
| 20260503000004 | 12 | 1 | 4.8 | 8.0 | 0.00 | 0.00 | 0.00 | 38 | 1011.8 |
| 20260502235503 | 12 | 1 | 4.8 | 4.8 | 0.00 | 0.00 | 0.00 | 38 | 1011.8 |
| 20260502235003 | 12 | 1 | 4.8 | 9.7 | 0.00 | 0.00 | 0.00 | 39 | 1011.7 |
| 20260502234504 | 12 | 1 | 6.4 | 9.7 | 0.00 | 0.00 | 0.00 | 38 | 1011.7 |
| 20260502234004 | 12 | 1 | 6.4 | 9.7 | 0.00 | 0.00 | 0.00 | 38 | 1011.7 |
| 20260502233504 | 12 | 2 | 6.4 | 9.7 | 0.00 | 0.00 | 0.00 | 37 | 1011.6 |
| 20260502233004 | 12 | 1 | 6.4 | 11.3 | 0.00 | 0.00 | 0.00 | 37 | 1011.6 |
| 20260502232503 | 13 | 1 | 6.4 | 11.3 | 0.00 | 0.00 | 0.00 | 37 | 1011.5 |
| 20260502232003 | 13 | 2 | 6.4 | 9.7 | 0.00 | 0.00 | 0.00 | 37 | 1011.6 |
| 20260502231504 | 13 | 1 | 4.8 | 9.7 | 0.00 | 0.00 | 0.00 | 38 | 1011.5 |
| 20260502231003 | 13 | 1 | 4.8 | 9.7 | 0.00 | 0.00 | 0.00 | 38 | 1011.6 |
| 20260502230003 | 13 | 2 | 8.0 | 9.7 | 0.00 | 0.00 | 0.00 | 38 | 1011.8 |
| 20260502225504 | 13 | 1 | 8.0 | 12.9 | 0.00 | 0.00 | 0.00 | 38 | 1011.7 |
| 20260502225003 | 13 | 2 | 8.0 | 12.9 | 0.00 | 0.00 | 0.00 | 37 | 1011.6 |
| 20260502224503 | 13 | 1 | 8.0 | 12.9 | 0.00 | 0.00 | 0.00 | 37 | 1011.7 |
| 20260502224003 | 14 | 1 | 9.7 | 12.9 | 0.00 | 0.00 | 0.00 | 35 | 1011.6 |
| 20260502223504 | 14 | 2 | 9.7 | 11.3 | 0.00 | 0.00 | 0.00 | 34 | 1011.5 |
| 20260502222503 | 14 | 1 | 9.7 | 12.9 | 0.00 | 0.00 | 0.00 | 36 | 1011.4 |
| 20260502222003 | 15 | 1 | 8.0 | 9.7 | 0.00 | 0.00 | 0.00 | 35 | 1011.3 |
| 20260502221003 | 15 | 1 | 8.0 | 17.7 | 0.00 | 0.00 | 0.00 | 35 | 1011.3 |
| 20260502220503 | 15 | 2 | 6.4 | 17.7 | 0.00 | 0.00 | 0.00 | 34 | 1011.2 |
| 20260502220004 | 15 | 2 | 8.0 | 16.1 | 0.00 | 0.00 | 0.00 | 35 | 1011.2 |
| 20260502215504 | 14 | 2 | 9.7 | 17.7 | 0.00 | 0.00 | 0.00 | 35 | 1011.4 |
| 20260502215003 | 14 | 1 | 8.0 | 17.7 | 0.00 | 0.00 | 0.00 | 36 | 1011.4 |
| 20260502214503 | 15 | 1 | 8.0 | 17.7 | 0.00 | 0.00 | 0.00 | 37 | 1011.4 |